Flag for U.S.A. Weather past 2 weeks in Cheyenne, Wyoming, U.S.A.

Now
69 °F

Passing clouds.


Feels Like: 69 °F
Forecast: 60 / 79 °F
Wind: 10 mph from West

Location: Cheyenne Airport

Current Time: Aug 31, 2015 at 1:19:14 AM

Latest Report: Aug 31, 2015 at 12:53 AM


Visibility: 10 mi

Pressure: 29.74 "Hg (23.97 "Hg at 1855m altitude)

Humidity: 42%

Dew point: 45 °F

Location of CheyenneLocation

Historic Weather in Cheyenne — Graph

°F

Cheyenne temperature yesterday

Maximum temperature yesterday: 91 °F (at 1:53 PM)
Minimum temperature yesterday: 54 °F (at 3:53 AM)
Average temperature yesterday: 74 °F

Past Weeks' High & Low Weather Summary

 TemperatureHumidityPressure
High93 °F (Aug 25, 3:53 PM)100% (Aug 17, 7:53 AM)30.22 "Hg (Aug 17, 7:53 AM)
Low39 °F (Aug 23, 5:53 AM)9% (Aug 24, 2:53 PM)29.60 "Hg (Aug 21, 5:53 PM)
Average66 °F48%29.94 "Hg
* Reported Aug 15 11:53 PM — Aug 30 11:53 PM, Cheyenne, Weather by CustomWeather, © 2015

Note: Actual official high and low records may vary slightly from our data, if they occured in-between our weather recording intervals... More about our weather records

Advertising

Cheyenne weather history for previous 24 hours

 ConditionsComfort  
Time TempWeatherWind HumidityBarometerVisibility
11:53 PM
Sun, Aug 30
67 °FClear.6 mph47%29.76 "Hg10 mi
10:53 PM69 °FClear.9 mph44%29.78 "Hg10 mi
9:53 PM72 °FClear.5 mph41%29.78 "Hg10 mi
8:53 PM72 °FClear.5 mph37%29.77 "Hg10 mi
7:53 PM75 °FSunny.12 mph34%29.77 "Hg10 mi
6:53 PM80 °FScattered clouds.14 mph27%29.78 "Hg10 mi
5:53 PM85 °FPartly sunny.3 mph20%29.75 "Hg10 mi
4:53 PM88 °FSunny.7 mph15%29.75 "Hg10 mi
3:53 PM88 °FSunny.10 mph15%29.77 "Hg10 mi
2:53 PM88 °FPassing clouds.10 mph15%29.77 "Hg10 mi
1:53 PM91 °FSunny.14 mph14%29.78 "Hg10 mi
12:53 PM90 °FSunny.10 mph14%29.80 "Hg10 mi
11:53 AM89 °FPassing clouds.13 mph14%29.81 "Hg10 mi
10:53 AM86 °FSunny.14 mph16%29.83 "Hg10 mi
9:53 AM85 °FSunny.14 mph17%29.83 "Hg10 mi
8:53 AM77 °FSunny.9 mph28%29.85 "Hg10 mi
7:53 AM68 °FSunny.9 mph36%29.87 "Hg10 mi
6:53 AM60 °FClear.12 mph46%29.88 "Hg10 mi
5:53 AM60 °FClear.14 mph46%29.85 "Hg10 mi
4:53 AM57 °FClear.12 mph58%29.86 "Hg9 mi
3:53 AM54 °FClear.7 mph72%29.87 "Hg9 mi
2:53 AM57 °FClear.7 mph62%29.87 "Hg8 mi
1:53 AM60 °FClear.3 mph52%29.87 "Hg9 mi
Weather by CustomWeather, © 2015

See weather overviewHow to use our weather pages